Location: Forst
(46.9333°N, 15.4333°E)
Time: 20:30:55
(UTC+00:00)

N. Korean satellite - Pass Details

Date: 02 October 2021
Orbit: 450 x 495 km, 97.3° (Epoch: 25 October)

Event Time Altitude Azimuth Distance (km) Brightness Sun altitude
Rises 03:22:21 0° 28° (NNE) 2,553 10.9 -17.1°
Reaches altitude 10° 03:24:57 10° 48° (NE) 1,676 10.2 -16.7°
Maximum altitude 03:27:27 18° 92° (E) 1,271 9.7 -16.3°
Drops below altitude 10° 03:29:58 10° 137° (SE) 1,680 9.7 -15.8°
Sets 03:32:33 0° 157° (SSE) 2,561 10.4 -15.4°
